Wetterdaten: Woche 26.09.05 - 02.10.05 (KW39)
Datum Zeit Temperatur Luftfeuchte Luftdruck Niederschlag Windrichtung Wind
26.09.2005 00:00 11,1 C 93 % 1018 hPa 0,0 l/m N 0,0 km/h (0 Bft)
26.09.2005 01:00 10,5 C 94 % 1018 hPa 0,0 l/m N 0,0 km/h (0 Bft)
26.09.2005 02:00 9,9 C 95 % 1018 hPa 0,0 l/m N 0,0 km/h (0 Bft)
26.09.2005 03:00 9,6 C 97 % 1018 hPa 0,0 l/m N 0,0 km/h (0 Bft)
26.09.2005 04:00 9,0 C 97 % 1018 hPa 0,0 l/m N 0,0 km/h (0 Bft)
26.09.2005 05:00 8,9 C 98 % 1018 hPa 0,0 l/m N 0,0 km/h (0 Bft)
26.09.2005 06:00 9,1 C 98 % 1019 hPa 0,0 l/m N 0,0 km/h (0 Bft)
26.09.2005 07:00 9,0 C 99 % 1020 hPa 0,0 l/m N 0,0 km/h (0 Bft)
26.09.2005 08:00 10,1 C 100 % 1021 hPa 0,0 l/m N 0,0 km/h (0 Bft)
26.09.2005 09:00 12,0 C 100 % 1021 hPa 0,0 l/m S 4,2 km/h (1 Bft)
26.09.2005 10:00 14,4 C 98 % 1022 hPa 0,0 l/m S 13,7 km/h (3 Bft)
26.09.2005 11:00 15,8 C 85 % 1022 hPa 0,0 l/m S 14,3 km/h (3 Bft)
26.09.2005 12:00 16,5 C 82 % 1022 hPa 0,0 l/m S-SW 11,8 km/h (2 Bft)
26.09.2005 13:00 17,8 C 72 % 1022 hPa 0,0 l/m S-SW 12,0 km/h (2 Bft)
26.09.2005 14:00 19,7 C 62 % 1022 hPa 0,0 l/m W 10,9 km/h (2 Bft)
26.09.2005 15:00 20,2 C 58 % 1021 hPa 0,0 l/m W 7,5 km/h (2 Bft)
26.09.2005 16:00 19,0 C 63 % 1022 hPa 0,0 l/m W 8,2 km/h (2 Bft)
26.09.2005 17:00 18,4 C 66 % 1022 hPa 0,0 l/m W-NW 5,4 km/h (1 Bft)
26.09.2005 18:00 17,4 C 71 % 1022 hPa 0,0 l/m W 0,6 km/h (0 Bft)
26.09.2005 19:00 15,8 C 77 % 1022 hPa 0,0 l/m W 1,6 km/h (1 Bft)
26.09.2005 20:00 14,7 C 82 % 1023 hPa 0,0 l/m N 0,0 km/h (0 Bft)
26.09.2005 21:00 14,2 C 85 % 1023 hPa 0,0 l/m N 0,0 km/h (0 Bft)
26.09.2005 22:00 13,7 C 88 % 1023 hPa 0,0 l/m N 0,0 km/h (0 Bft)
26.09.2005 23:00 13,5 C 92 % 1023 hPa 0,0 l/m N 0,0 km/h (0 Bft)
27.09.2005 00:00 13,4 C 94 % 1023 hPa 0,0 l/m N 0,0 km/h (0 Bft)
27.09.2005 01:00 13,1 C 94 % 1023 hPa 0,0 l/m N 0,0 km/h (0 Bft)
27.09.2005 02:00 12,9 C 96 % 1022 hPa 0,0 l/m N 0,0 km/h (0 Bft)
27.09.2005 03:00 12,9 C 97 % 1023 hPa 0,0 l/m N 0,0 km/h (0 Bft)
27.09.2005 04:00 12,6 C 97 % 1022 hPa 0,0 l/m N 0,0 km/h (0 Bft)
27.09.2005 05:00 12,5 C 98 % 1022 hPa 0,0 l/m N 0,0 km/h (0 Bft)
27.09.2005 06:00 12,2 C 98 % 1022 hPa 0,0 l/m N 0,0 km/h (0 Bft)
27.09.2005 07:00 12,4 C 99 % 1022 hPa 0,0 l/m N 0,0 km/h (0 Bft)
27.09.2005 08:00 12,4 C 100 % 1022 hPa 0,0 l/m N 0,0 km/h (0 Bft)
27.09.2005 09:00 12,9 C 100 % 1023 hPa 0,0 l/m N 0,0 km/h (0 Bft)
27.09.2005 10:00 13,4 C 100 % 1023 hPa 0,0 l/m N 0,0 km/h (0 Bft)
27.09.2005 11:00 14,3 C 99 % 1023 hPa 0,0 l/m S 3,3 km/h (1 Bft)
27.09.2005 12:00 15,5 C 93 % 1023 hPa 0,0 l/m O-NO 0,3 km/h (0 Bft)
27.09.2005 13:00 16,5 C 83 % 1023 hPa 0,0 l/m S-SW 3,5 km/h (1 Bft)
27.09.2005 14:00 16,8 C 81 % 1022 hPa 0,0 l/m S-SW 5,4 km/h (1 Bft)
27.09.2005 15:00 16,8 C 82 % 1022 hPa 0,0 l/m S 12,3 km/h (3 Bft)
27.09.2005 16:00 16,9 C 82 % 1022 hPa 0,0 l/m S-SW 13,5 km/h (3 Bft)
27.09.2005 17:00 17,1 C 80 % 1021 hPa 0,0 l/m S-SW 13,7 km/h (3 Bft)
27.09.2005 18:00 16,4 C 83 % 1021 hPa 0,0 l/m S-SW 10,3 km/h (2 Bft)
27.09.2005 19:00 15,4 C 88 % 1021 hPa 0,0 l/m S 5,5 km/h (1 Bft)
27.09.2005 20:00 14,7 C 92 % 1021 hPa 0,0 l/m S-SW 8,9 km/h (2 Bft)
27.09.2005 21:00 14,7 C 90 % 1021 hPa 0,0 l/m S 8,9 km/h (2 Bft)
27.09.2005 22:00 14,4 C 89 % 1021 hPa 0,0 l/m S 3,8 km/h (1 Bft)
27.09.2005 23:00 13,1 C 91 % 1021 hPa 0,0 l/m S-SO 0,7 km/h (0 Bft)
28.09.2005 00:00 12,3 C 94 % 1022 hPa 0,0 l/m N 0,1 km/h (0 Bft)
28.09.2005 01:00 12,2 C 96 % 1022 hPa 0,0 l/m N 0,0 km/h (0 Bft)
28.09.2005 02:00 11,9 C 98 % 1022 hPa 0,0 l/m N 0,0 km/h (0 Bft)
28.09.2005 03:00 11,8 C 99 % 1021 hPa 0,0 l/m S-SO 1,7 km/h (1 Bft)
28.09.2005 04:00 11,8 C 100 % 1021 hPa 0,0 l/m S 2,0 km/h (1 Bft)
28.09.2005 05:00 11,4 C 100 % 1021 hPa 0,0 l/m S 0,7 km/h (0 Bft)
28.09.2005 06:00 11,8 C 100 % 1021 hPa 0,0 l/m S 8,1 km/h (2 Bft)
28.09.2005 07:00 11,6 C 100 % 1022 hPa 0,0 l/m S 5,2 km/h (1 Bft)
28.09.2005 08:00 12,0 C 100 % 1022 hPa 0,0 l/m W-SW 1,4 km/h (1 Bft)
28.09.2005 09:00 14,2 C 100 % 1022 hPa 0,0 l/m SW 6,1 km/h (2 Bft)
28.09.2005 10:00 15,5 C 94 % 1023 hPa 0,0 l/m W-SW 9,7 km/h (2 Bft)
28.09.2005 11:00 16,9 C 71 % 1023 hPa 0,0 l/m W-SW 12,1 km/h (2 Bft)
28.09.2005 12:00 18,2 C 59 % 1022 hPa 0,0 l/m W-SW 13,1 km/h (3 Bft)
28.09.2005 13:00 18,4 C 57 % 1022 hPa 0,0 l/m W 12,9 km/h (3 Bft)
28.09.2005 14:00 17,6 C 61 % 1022 hPa 0,0 l/m W-SW 9,4 km/h (2 Bft)
28.09.2005 15:00 16,2 C 72 % 1022 hPa 0,0 l/m NW 8,9 km/h (2 Bft)
28.09.2005 16:00 16,7 C 69 % 1022 hPa 0,0 l/m N 11,5 km/h (2 Bft)
28.09.2005 17:00 16,0 C 70 % 1022 hPa 0,0 l/m N-NW 10,5 km/h (2 Bft)
28.09.2005 18:00 15,1 C 72 % 1022 hPa 0,0 l/m N-NW 6,6 km/h (2 Bft)
28.09.2005 19:00 14,3 C 74 % 1022 hPa 0,0 l/m N 4,6 km/h (1 Bft)
28.09.2005 20:00 13,6 C 74 % 1022 hPa 0,0 l/m N 0,0 km/h (0 Bft)
28.09.2005 21:00 13,0 C 79 % 1022 hPa 0,0 l/m W 1,4 km/h (1 Bft)
28.09.2005 22:00 12,5 C 80 % 1022 hPa 0,0 l/m N 0,0 km/h (0 Bft)
28.09.2005 23:00 12,2 C 83 % 1021 hPa 0,0 l/m N 0,0 km/h (0 Bft)
29.09.2005 00:00 11,9 C 84 % 1021 hPa 0,0 l/m N 0,0 km/h (0 Bft)
29.09.2005 01:00 11,8 C 86 % 1021 hPa 0,0 l/m N 0,0 km/h (0 Bft)
29.09.2005 02:00 11,3 C 89 % 1020 hPa 0,0 l/m N 0,0 km/h (0 Bft)
29.09.2005 03:00 11,0 C 92 % 1020 hPa 0,0 l/m N 0,0 km/h (0 Bft)
29.09.2005 04:00 10,9 C 95 % 1020 hPa 0,0 l/m N 0,0 km/h (0 Bft)
29.09.2005 05:00 10,9 C 96 % 1019 hPa 0,0 l/m N 0,0 km/h (0 Bft)
29.09.2005 06:00 10,9 C 96 % 1019 hPa 0,0 l/m N 0,0 km/h (0 Bft)
29.09.2005 07:00 10,9 C 96 % 1020 hPa 0,0 l/m W 2,5 km/h (1 Bft)
29.09.2005 08:00 11,1 C 94 % 1020 hPa 0,0 l/m S-SW 4,6 km/h (1 Bft)
29.09.2005 09:00 11,5 C 95 % 1020 hPa 0,0 l/m S 11,4 km/h (2 Bft)
29.09.2005 10:00 12,2 C 95 % 1020 hPa 0,0 l/m S 12,4 km/h (3 Bft)
29.09.2005 11:00 13,7 C 75 % 1019 hPa 0,0 l/m SW 14,6 km/h (3 Bft)
29.09.2005 12:00 14,5 C 63 % 1019 hPa 0,0 l/m W-SW 15,9 km/h (3 Bft)
29.09.2005 13:00 14,3 C 61 % 1019 hPa 0,0 l/m W-SW 18,0 km/h (3 Bft)
29.09.2005 14:00 14,2 C 58 % 1019 hPa 0,0 l/m SW 17,7 km/h (3 Bft)
29.09.2005 15:00 14,0 C 56 % 1019 hPa 0,0 l/m W-SW 19,2 km/h (3 Bft)
29.09.2005 16:00 12,0 C 77 % 1019 hPa 0,0 l/m SW 10,4 km/h (2 Bft)
29.09.2005 17:00 12,0 C 77 % 1019 hPa 0,0 l/m W-SW 16,6 km/h (3 Bft)
29.09.2005 18:00 10,7 C 82 % 1020 hPa 1,0 l/m W-SW 13,2 km/h (3 Bft)
29.09.2005 19:00 9,6 C 86 % 1021 hPa 0,0 l/m W-SW 8,9 km/h (2 Bft)
29.09.2005 20:00 9,2 C 89 % 1022 hPa 0,0 l/m W-SW 5,5 km/h (1 Bft)
29.09.2005 21:00 9,0 C 89 % 1023 hPa 0,0 l/m W-SW 8,5 km/h (2 Bft)
29.09.2005 22:00 8,4 C 87 % 1023 hPa 0,0 l/m W-SW 2,6 km/h (1 Bft)
29.09.2005 23:00 7,3 C 90 % 1023 hPa 0,0 l/m SW 1,9 km/h (1 Bft)
30.09.2005 00:00 7,1 C 93 % 1024 hPa 0,0 l/m W-SW 7,0 km/h (2 Bft)
30.09.2005 01:00 7,3 C 87 % 1024 hPa 0,0 l/m W 9,8 km/h (2 Bft)
30.09.2005 02:00 6,9 C 85 % 1024 hPa 0,0 l/m W 5,5 km/h (1 Bft)
30.09.2005 03:00 5,6 C 87 % 1024 hPa 0,0 l/m N 0,0 km/h (0 Bft)
30.09.2005 04:00 4,6 C 90 % 1024 hPa 0,0 l/m N 0,0 km/h (0 Bft)
30.09.2005 05:00 3,7 C 93 % 1024 hPa 0,0 l/m N 0,0 km/h (0 Bft)
30.09.2005 06:00 3,2 C 95 % 1024 hPa 0,0 l/m N 0,0 km/h (0 Bft)
30.09.2005 07:00 2,9 C 96 % 1025 hPa 0,0 l/m N 0,0 km/h (0 Bft)
30.09.2005 08:00 3,8 C 97 % 1025 hPa 0,0 l/m N 0,0 km/h (0 Bft)
30.09.2005 09:00 4,9 C 98 % 1026 hPa 0,0 l/m N 0,0 km/h (0 Bft)
30.09.2005 10:00 8,1 C 95 % 1026 hPa 0,0 l/m S-SW 5,0 km/h (1 Bft)
30.09.2005 11:00 10,9 C 68 % 1026 hPa 0,0 l/m W 5,2 km/h (1 Bft)
30.09.2005 12:00 11,4 C 58 % 1025 hPa 0,0 l/m S-SW 4,7 km/h (1 Bft)
30.09.2005 13:00 13,0 C 49 % 1025 hPa 0,0 l/m S 11,1 km/h (2 Bft)
30.09.2005 14:00 14,1 C 45 % 1025 hPa 0,0 l/m W-SW 10,5 km/h (2 Bft)
30.09.2005 15:00 14,9 C 40 % 1025 hPa 0,0 l/m W 10,2 km/h (2 Bft)
30.09.2005 16:00 13,5 C 43 % 1024 hPa 0,0 l/m W-SW 11,2 km/h (2 Bft)
30.09.2005 17:00 12,6 C 50 % 1024 hPa 0,0 l/m W-SW 1,3 km/h (1 Bft)
30.09.2005 18:00 11,5 C 56 % 1024 hPa 0,0 l/m W-SW 7,2 km/h (2 Bft)
30.09.2005 19:00 10,7 C 60 % 1024 hPa 0,0 l/m W 1,6 km/h (1 Bft)
30.09.2005 20:00 9,9 C 70 % 1024 hPa 0,0 l/m N 0,0 km/h (0 Bft)
30.09.2005 21:00 9,6 C 76 % 1024 hPa 0,0 l/m S-SO 0,6 km/h (0 Bft)
30.09.2005 22:00 9,2 C 78 % 1024 hPa 0,0 l/m N 0,0 km/h (0 Bft)
30.09.2005 23:00 9,0 C 80 % 1024 hPa 0,0 l/m N 0,0 km/h (0 Bft)
01.10.2005 00:00 8,8 C 84 % 1023 hPa 0,0 l/m N 0,0 km/h (0 Bft)
01.10.2005 01:00 8,7 C 87 % 1023 hPa 0,0 l/m N 0,0 km/h (0 Bft)
01.10.2005 02:00 8,7 C 87 % 1022 hPa 0,0 l/m N 0,0 km/h (0 Bft)
01.10.2005 03:00 8,8 C 87 % 1022 hPa 0,0 l/m S 0,5 km/h (0 Bft)
01.10.2005 04:00 8,8 C 85 % 1021 hPa 0,0 l/m N 0,0 km/h (0 Bft)
01.10.2005 05:00 8,8 C 86 % 1020 hPa 0,0 l/m N 0,0 km/h (0 Bft)
01.10.2005 06:00 8,8 C 87 % 1020 hPa 0,0 l/m S 0,7 km/h (0 Bft)
01.10.2005 07:00 9,1 C 86 % 1019 hPa 0,0 l/m S 1,6 km/h (1 Bft)
01.10.2005 08:00 9,4 C 86 % 1019 hPa 0,0 l/m S 6,6 km/h (2 Bft)
01.10.2005 09:00 10,0 C 85 % 1018 hPa 0,0 l/m S 12,7 km/h (3 Bft)
01.10.2005 10:00 10,9 C 83 % 1018 hPa 0,0 l/m S 12,3 km/h (3 Bft)
01.10.2005 11:00 11,3 C 81 % 1017 hPa 0,0 l/m S 11,6 km/h (2 Bft)
01.10.2005 12:00 11,6 C 82 % 1017 hPa 0,0 l/m S 12,7 km/h (3 Bft)
01.10.2005 13:00 11,6 C 85 % 1016 hPa 0,0 l/m S 12,6 km/h (3 Bft)
01.10.2005 14:00 11,9 C 87 % 1016 hPa 0,0 l/m S-SW 12,0 km/h (2 Bft)
01.10.2005 15:00 11,3 C 93 % 1015 hPa 2,0 l/m S 14,4 km/h (3 Bft)
01.10.2005 16:00 11,2 C 97 % 1015 hPa 1,0 l/m S 14,4 km/h (3 Bft)
01.10.2005 17:00 11,1 C 98 % 1015 hPa 1,0 l/m S-SW 11,2 km/h (2 Bft)
01.10.2005 18:00 11,0 C 100 % 1015 hPa 1,0 l/m S 12,1 km/h (2 Bft)
01.10.2005 19:00 11,0 C 100 % 1014 hPa 1,0 l/m S-SW 10,5 km/h (2 Bft)
01.10.2005 20:00 11,0 C 100 % 1014 hPa 0,0 l/m S-SW 10,5 km/h (2 Bft)
01.10.2005 21:00 11,2 C 100 % 1015 hPa 3,0 l/m S-SW 8,9 km/h (2 Bft)
01.10.2005 22:00 11,2 C 100 % 1015 hPa 3,0 l/m S 9,2 km/h (2 Bft)
01.10.2005 23:00 11,2 C 100 % 1015 hPa 0,0 l/m S 1,7 km/h (1 Bft)
02.10.2005 00:00 11,2 C 100 % 1015 hPa 0,0 l/m S 3,8 km/h (1 Bft)
02.10.2005 12:00 9,4 C 98 % 1018 hPa 8,0 l/m N 0,0 km/h (0 Bft)
02.10.2005 13:00 9,5 C 97 % 1019 hPa 1,0 l/m O 1,0 km/h (0 Bft)
02.10.2005 14:00 9,4 C 96 % 1018 hPa 0,0 l/m N 0,0 km/h (0 Bft)
02.10.2005 15:00 9,4 C 94 % 1019 hPa 0,0 l/m N 0,0 km/h (0 Bft)
02.10.2005 16:00 9,5 C 92 % 1019 hPa 1,0 l/m N 0,0 km/h (0 Bft)
02.10.2005 17:00 9,4 C 92 % 1019 hPa 0,0 l/m O-NO 0,2 km/h (0 Bft)
02.10.2005 18:00 8,8 C 93 % 1019 hPa 1,0 l/m O-NO 3,6 km/h (1 Bft)
02.10.2005 19:00 8,3 C 94 % 1020 hPa 1,0 l/m N-NO 5,5 km/h (1 Bft)
02.10.2005 20:00 8,0 C 95 % 1020 hPa 1,0 l/m N-NO 2,1 km/h (1 Bft)
02.10.2005 21:00 7,7 C 97 % 1021 hPa 1,0 l/m N 0,0 km/h (0 Bft)
02.10.2005 22:00 7,5 C 98 % 1020 hPa 0,0 l/m W-NW 1,9 km/h (1 Bft)
02.10.2005 23:00 7,4 C 99 % 1021 hPa 2,0 l/m NW 5,6 km/h (1 Bft)
Min-Datum _ 30.09.05 30.09.05 01.10.05 - - 26.09.05
_ Min-Zeit 07:41 15:22 18:16 - - 00:00
Minimum _ 2,7 C 37 % 1014 hPa - - 0,0 km/h (0 Bft)
Max-Datum _ 26.09.05 26.09.05 30.09.05 02.10.05 - 29.09.05
_ Max-Zeit 15:04 08:06 09:45 12:17 - 15:33
Maximum _ 20,6 C 100 % 1026 hPa 8,0 l/m - 42,3 km/h
W-SW (6 Bft)
Durchschnitt _ 11,8 C 86 % 1021 hPa #29,0 l/m S-SW 5,0 km/h (1 Bft)

Durchschnitt Minimum Temp.11,5 C
Durchschnitt Maximum Temp.12,1 C